Regional Weather Roundup
Issued by NWS Jackson, KY

Home | Current Version | Previous Version | Text Only | Print | Product List | Glossary Off
Versions: 1 2 3 4 5 6 7 8 9 10 11 12 13 14 15 16 17 18 19 20 21 22 23 24 25 26 27 28 29 30 31 32 33 34 35 36 37 38 39 40 41 42 43 44 45 46 47 48 49 50

000
ASUS43 KJKL 051010
RWRJKL

EAST KENTUCKY HOURLY WEATHER ROUNDUP
NATIONAL WEATHER SERVICE JACKSON KY
500 AM EST FRI FEB 05 2016

NOTE: "FAIR" INDICATES FEW OR NO CLOUDS BELOW 12,000 FEET WITH
NO SIGNIFICANT WEATHER AND/OR OBSTRUCTIONS TO VISIBILITY.

* THESE REPORTS ARE NOT UNDER NWS QUALITY CONTROL AND MAY NOT
  REPORT WEATHER SUCH AS PRECIPITATION AND FOG.

KYZ079-080-083-085-087-088-110-112-115-119-120-051100
...EASTERN KENTUCKY...

CITY           SKY/WX    TMP DP  RH WIND       PRES   REMARKS
JACKSON        CLEAR     25  17  72 CALM      30.34R
LONDON         CLEAR     24  18  77 CALM      30.36R
SOMERSET*      CLEAR     23  19  86 CALM      30.41R
MONTICELLO*    CLEAR     19  16  88 N8        30.41S WCI   9
WILLIAMSBURG*  SUNNY     23  19  86 CALM      30.37S
MIDDLESBORO*   CLEAR     28  18  65 N5        30.36S WCI  23
HARLAN APT*      N/A     28  18  64 CALM      30.33R
HAZARD APT*    SUNNY    N/A N/A N/A NW3       30.35R
BLACK MTN*       N/A     16  16 100 N8          N/A  WCI   5
BIG SANDY*     SUNNY     27  18  71 NW7       30.34R WCI  19
MOREHEAD APT*  SUNNY     23  18  80 CALM      30.38S
$$

KYZ035-036-041-042-044-050-067-078-099-051100
...CENTRAL KENTUCKY...

CITY           SKY/WX    TMP DP  RH WIND       PRES   REMARKS
MT STERLING*   CLEAR     21  21 100 CALM      30.38S
DANVILLE*      CLEAR     23  18  80 CALM      30.39R
RICHMOND*      CLEAR     23  18  80 SW5       30.37R WCI  17
LEXINGTON      CLEAR     22  17  81 CALM      30.37R
FRANKFORT      CLEAR     20  15  81 CALM      30.38R
$$

KYZ091>093-OHZ055-061-077-WVZ005-015-034-035-042-051100
...SOUTHERN OHIO/WEST VIRGINIA...

CITY           SKY/WX    TMP DP  RH WIND       PRES   REMARKS
COVINGTON      CLEAR     21  17  84 CALM      30.37R
COLUMBUS       CLEAR     22  14  71 W3        30.34R
DAYTON         CLEAR     18  16  92 W7        30.35R WCI   9
WILMINGTON     CLEAR     21  16  81 W5        30.34R WCI  15
HUNTINGTON       N/A     26  17  68 NW7       30.35R WCI  18
CHARLESTON     FLURRIES  29  21  72 NW10G18   30.31R WCI  20
PINEVILLE*       N/A     28  14  54 MISG      30.31R
BECKLEY        CLOUDY    24  15  68 NW15      30.19R WCI  11
$$

VAZ002-007-008-TNZ017-027-036-066-071-051100
...SOUTHWEST VIRGINIA/EAST TENNESSEE...

CITY           SKY/WX    TMP DP  RH WIND       PRES   REMARKS
KNOXVILLE      CLEAR     30  18  60 NW3       30.37R
OAK RIDGE      CLEAR     31  17  56 N8        30.39R WCI  23
CROSSVILLE     CLEAR     23  15  71 CALM      30.34R
NASHVILLE      CLEAR     25  19  78 S3        30.41F
$$

...KEY TO REMARKS...
VSB - VISIBILITY IN MILES
WCI - WIND CHILL INDEX
HX  - HEAT INDEX

$$



USA.gov is the U.S. government's official web portal to all federal, state and local government web resources and services.